Back to catalog

STARLINK-35136

AliveCommunicationsSSO
NORAD 65537·PAYLOAD·🇺🇸 United States

Launched Sep 6, 2025 from Cape Canaveral Space Force Station

Loading…

Next Passes (next 24 hours)

TLE

FreshSource: CelesTrak SupGP

Epoch: Sep 14, 2026, 22:37 UTC

1 65537C 25200T   26257.94284722 -.00059578  00000+0 -18495-2 0  2576
2 65537  97.2854 324.4869 0001005  91.6104 316.6243 15.33468320    17

Track STARLINK-35136 in real time with AllMySat

Download on the App Store